| time (UTC) | temp F | wind direction | speed knots | gust knots | rain 1hr in | rain 24hr in | rain mn in | humidity % | barometer mb |
| 20260905065245 | 51 | 0 | 0.0 | 0.0 | 0.00 | 0.24 | 0.24 | 97 | |
| 20260905064215 | 51 | 0 | 0.0 | 0.0 | 0.00 | 0.24 | 0.24 | 97 | |
| 20260905063146 | 51 | 0 | 0.0 | 0.0 | 0.00 | 0.24 | 0.24 | 97 | |
| 20260905062146 | 52 | 0 | 0.0 | 0.0 | 0.00 | 0.24 | 0.24 | 96 | |
| 20260905061116 | 52 | 0 | 0.0 | 0.0 | 0.00 | 0.24 | 0.24 | 95 | |
| 20260905060116 | 52 | 0 | 0.0 | 0.0 | 0.00 | 0.24 | 0.24 | 95 | |
| 20260905055115 | 52 | 0 | 0.0 | 0.0 | 0.00 | 0.24 | 0.24 | 94 | |
| 20260905054046 | 53 | 0 | 0.0 | 0.0 | 0.00 | 0.24 | 0.24 | 93 | |
| 20260905053015 | 53 | 0 | 0.0 | 0.0 | 0.00 | 0.24 | 0.24 | 93 | |
| 20260905052015 | 54 | 0 | 0.0 | 0.0 | 0.00 | 0.24 | 0.24 | 93 | |
| 20260905050946 | 54 | 0 | 0.0 | 0.0 | 0.00 | 0.24 | 0.24 | 90 | |
| 20260905045916 | 54 | 0 | 0.0 | 0.0 | 0.00 | 0.24 | 0.24 | 89 | |
| 20260905044916 | 55 | 0 | 0.0 | 0.0 | 0.00 | 0.24 | 0.24 | 88 | |
| 20260905043845 | 55 | 0 | 0.0 | 0.0 | 0.00 | 0.24 | 0.24 | 87 | |
| 20260905042846 | 56 | 0 | 0.0 | 0.0 | 0.00 | 0.25 | 0.24 | 87 | |
| 20260905041845 | 56 | 0 | 0.0 | 0.0 | 0.00 | 0.26 | 0.24 | 83 | |
| 20260905040845 | 57 | 0 | 0.0 | 0.0 | 0.00 | 0.27 | 0.24 | 83 | |
| 20260905035846 | 58 | 0 | 0.0 | 0.0 | 0.00 | 0.27 | 0.24 | 80 | |
| 20260905034845 | 58 | 0 | 0.0 | 0.0 | 0.00 | 0.28 | 0.24 | 81 | |
| 20260905033846 | 59 | 0 | 0.0 | 0.0 | 0.00 | 0.28 | 0.24 | 78 | |
| 20260905032815 | 60 | 0 | 0.0 | 0.0 | 0.00 | 0.28 | 0.24 | 77 | |
| 20260905031746 | 61 | 0 | 0.0 | 0.0 | 0.00 | 0.28 | 0.24 | 73 | |
| 20260905030716 | 62 | 0 | 0.0 | 0.0 | 0.00 | 0.28 | 0.24 | 72 | |
| 20260905025716 | 63 | 0 | 0.0 | 0.0 | 0.00 | 0.28 | 0.24 | 69 | |
| 20260905024715 | 64 | 0 | 0.0 | 0.0 | 0.00 | 0.28 | 0.24 | 68 | |
| 20260905023646 | 66 | 0 | 0.0 | 0.0 | 0.00 | 0.28 | 0.24 | 65 | |
| 20260905022646 | 68 | 0 | 0.0 | 0.0 | 0.00 | 0.28 | 0.24 | 61 | |
| 20260905021615 | 69 | 0 | 0.0 | 0.0 | 0.00 | 0.28 | 0.24 | 58 | |
| 20260905020615 | 70 | 0 | 0.0 | 0.0 | 0.00 | 0.28 | 0.24 | 56 | |
| 20260905015615 | 70 | 0 | 1.7 | 0.0 | 0.00 | 0.28 | 0.24 | 53 | |
| 20260905014545 | 71 | 0 | 2.6 | 0.0 | 0.00 | 0.28 | 0.24 | 52 | |
| 20260905013545 | 72 | 0 | 2.6 | 0.0 | 0.00 | 0.28 | 0.24 | 48 | |
| 20260905012516 | 72 | 0 | 2.6 | 0.0 | 0.00 | 0.28 | 0.24 | 47 | |
| 20260905011515 | 73 | 0 | 1.7 | 0.0 | 0.00 | 0.28 | 0.24 | 45 | |
| 20260905010446 | 73 | 0 | 0.9 | 0.0 | 0.00 | 0.28 | 0.24 | 46 | |
| 20260904222515 | 79 | 0 | 4.3 | 0.0 | 0.24 | 0.28 | 0.24 | 45 | |
| 20260904221515 | 79 | 0 | 1.7 | 0.0 | 0.24 | 0.28 | 0.24 | 46 | |
| 20260904220515 | 79 | 0 | 2.6 | 0.0 | 0.00 | 0.04 | 0.00 | 47 |